Home   Weather   Irving   Past weeks

Flag for USA Past Weather in Irving, Texas, USA — Yesterday and Last 2 Weeks

Now
77 °F

Partly sunny.


Feels Like: 78 °F
Forecast: 50 / 80 °F
Wind: 20 mph from South

Location: Dallas / Fort Worth International Airport

Current Time: Apr 24, 2017 at 5:52:29 pm

Latest Report: Apr 24, 2017 at 4:53 pm


Visibility: 10 mi

Pressure: 29.69 "Hg

Humidity: 39%

Dew Point: 50 °F

Location of IrvingLocation

Past Weather in Irving — Graph

°F

Irving Temperature Yesterday

Maximum temperature yesterday: 74 °F (at 3:53 pm)
Minimum temperature yesterday: 50 °F (at 4:53 am)
Average temperature yesterday: 62 °F

High & Low Weather Summary for the Past Weeks

 TemperatureHumidityPressure
High84 °F (Apr 20, 3:53 pm)100% (Apr 12, 3:05 am)30.23 "Hg (Apr 12, 3:05 am)
Low49 °F (Apr 24, 6:53 am)28% (Apr 23, 4:53 pm)29.63 "Hg (Apr 21, 7:53 pm)
Average70 °F73%30.00 "Hg
* Reported Apr 9 3:53 pm — Apr 24 3:53 pm, Irving, Weather by CustomWeather, © 2017

Note: Actual official high and low records may vary slightly from our data, if they occured in-between our weather recording intervals... More about our weather records

Advertising

Irving Weather History for the Previous 24 Hours

Scroll right to see more
 ConditionsComfort  
Time TempWeatherWind HumidityBarometerVisibility
3:53 pm
Mon, Apr 24
76 °FPartly sunny.16 mph37%29.73 "Hg10 mi
2:53 pm77 °FBroken clouds.13 mph36%29.77 "Hg10 mi
1:53 pm77 °FPartly sunny.15 mph36%29.80 "Hg10 mi
12:53 pm75 °FPartly sunny.13 mph36%29.83 "Hg10 mi
11:53 am73 °FPartly sunny.14 mph37%29.88 "Hg10 mi
10:53 am71 °FScattered clouds.14 mph39%29.90 "Hg10 mi
9:53 am68 °FScattered clouds.10 mph47%29.92 "Hg10 mi
8:53 am61 °FSunny.7 mph65%29.93 "Hg10 mi
7:53 am54 °FSunny.No wind77%29.93 "Hg10 mi
6:53 am49 °FPassing clouds.3 mph80%29.93 "Hg10 mi
5:53 am53 °FPassing clouds.8 mph72%29.92 "Hg10 mi
4:53 am52 °FClear.8 mph75%29.92 "Hg10 mi
3:53 am53 °FClear.8 mph74%29.92 "Hg10 mi
2:53 am52 °FClear.3 mph75%29.93 "Hg10 mi
1:53 am56 °FClear.6 mph65%29.94 "Hg10 mi
12:53 am59 °FClear.5 mph54%29.95 "Hg10 mi
11:53 pm
Sun, Apr 23
60 °FClear.3 mph49%29.97 "Hg10 mi
10:53 pm63 °FClear.No wind43%29.98 "Hg10 mi
9:53 pm61 °FClear.5 mph48%29.99 "Hg10 mi
8:53 pm63 °FPassing clouds.6 mph45%29.98 "Hg10 mi
7:53 pm68 °FPassing clouds.8 mph36%29.98 "Hg10 mi
6:53 pm72 °FPassing clouds.9 mph31%29.98 "Hg10 mi
5:53 pm73 °FPassing clouds.10 mph28%30.00 "Hg10 mi
Weather by CustomWeather, © 2017

See weather overviewHow to use our weather pages